This demonstration page uses our WeatherBlox Daily Observations layout. Learn more.

Left ArrowRight Arrow

38.20091, -84.87328

Hourly Observations for September 26, 2022

Temp ( °F °C ) Dew Point ( °F °C ) Humidity (%) Winds ( mph kmh ) Pressure ( in mb ) Visibility ( mi km ) Precip ( " mm )
12:53 am 00:53 Partly Cloudy 59 15 50 10 72 72 WSW 7 11 29.86 1011 10 16 0.00 0.00
1:53 am 01:53 Clear 56 13.3 50 10 80 80 SW 7 11 29.85 1011 10 16 0.00 0.00
2:53 am 02:53 Partly Cloudy 56 13.3 50 10 80 80 WSW 6 9 29.83 1010 10 16 0.00 0.00
3:53 am 03:53 Cloudy 57 13.9 52 11.1 83 83 SW 6 9 29.82 1010 10 16 0.00 0.00
4:53 am 04:53 Mostly Cloudy 57 13.9 51 10.6 80 80 WSW 7 11 29.81 1010 10 16 0.00 0.00
5:53 am 05:53 Clear 57 13.9 50 10 77 77 W 5 7 29.83 1010 10 16 0.00 0.00
6:53 am 06:53 Clear 55 12.8 49 9.4 80 80 WSW 6 9 29.84 1011 10 16 0.00 0.00
7:53 am 07:53 Sunny 56 13.3 48 8.9 75 75 WSW 6 9 29.86 1011 10 16 0.00 0.00
8:53 am 08:53 Sunny 59 15 49 9.4 69 69 W 5 7 29.87 1012 10 16 0.00 0.00
9:53 am 09:53 Sunny 61 16.1 48 8.9 62 62 WNW 8 13 29.89 1012 10 16 0.00 0.00
10:53 am 10:53 Sunny 65 18.3 49 9.4 56 56 WNW 9 15 29.91 1013 10 16 0.00 0.00
11:53 am 11:53 Sunny 67 19.4 47 8.3 49 49 W 10 17 29.91 1013 10 16 0.00 0.00
12:53 pm 12:53 Partly Cloudy 67 19.4 40 4.4 37 37 NW 15 24 29.91 1013 10 16 0.00 0.00
1:53 pm 13:53 Partly Cloudy 70 21.1 41 5 35 35 W 12 19 29.91 1013 10 16 0.00 0.00
2:53 pm 14:53 Mostly Cloudy 69 20.6 40 4.4 34 34 W 9 15 29.90 1013 10 16 0.00 0.00
3:53 pm 15:53 Mostly Sunny 68 20 39 3.9 35 35 WNW 10 17 29.90 1012 10 16 0.00 0.00
4:53 pm 16:53 Partly Cloudy 69 20.6 40 4.4 34 34 NW 14 22 29.90 1013 10 16 0.00 0.00
5:53 pm 17:53 Partly Cloudy 68 20 39 3.9 35 35 WNW 9 15 29.91 1013 10 16 0.00 0.00
6:53 pm 18:53 Sunny 65 18.3 40 4.4 40 40 WNW 7 11 29.92 1013 10 16 0.00 0.00
7:53 pm 19:53 Clear 62 16.7 41 5 46 46 NW 6 9 29.93 1014 10 16 0.00 0.00
8:53 pm 20:53 Clear 58 14.4 41 5 53 53 WNW 5 7 29.96 1015 10 16 0.00 0.00
9:53 pm 21:53 Clear 58 14.4 40 4.4 51 51 W 5 7 29.97 1015 10 16 0.00 0.00
10:53 pm 22:53 Clear 55 12.8 40 4.4 57 57 W 3 6 29.98 1015 10 16 0.00 0.00
11:53 pm 23:53 Clear 50 10 42 5.6 74 74 WSW 7 11 29.99 1016 10 16 0.00 0.00

Powered by AerisWeather